Regional Weather Roundup
Issued by NWS

Home | Current Version | Previous Version | Graphics & Text | Print | Product List | Glossary On
Versions: 1 2 3 4 5 6 7 8 9 10 11 12 13 14 15 16 17 18 19 20 21 22 23 24 25 26 27 28 29 30 31 32 33 34 35 36 37 38 39 40 41 42 43 44 45 46 47 48 49 50
000
ASUS43 KIND 172309
RWRIN

WEATHER ROUNDUP FOR INDIANA
NATIONAL WEATHER SERVICE INDIANAPOLIS IN
700 PM EDT THU APR 17 2014

NOTE: "FAIR" INDICATES FEW OR NO CLOUDS BELOW 12,000 FEET WITH NO
SIGNIFICANT WEATHER AND/OR OBSTRUCTIONS TO VISIBILITY.

* - STATION DOES NOT REPORT WEATHER SUCH AS PRECIPITATION OR FOG.

+ - STATION NOT QUALITY CONTROLLED BY THE NATIONAL WEATHER SERVICE.
    USE DATA WITH CAUTION...ESPECIALLY DEWPOINT AND RELATIVE
    HUMIDITY OBSERVATIONS.

INZ001>003-010>013-019-020-180000-
NORTHWEST INDIANA

CITY           SKY/WX    TMP DP  RH WIND       PRES   REMARKS
GARY /AIRPORT/ CLOUDY    61  36  39 W20       30.20S
LA PORTE +     CLOUDY    61  36  39 SW9       30.21R
MICHIGAN CITY+ CLOUDY    57  34  41 W5        30.21R
MONTICELLO +   MOSUNNY   64  38  39 SW8       30.21S
RENSSELAER +   CLOUDY    63  32  31 SW8G16    30.21S
VALPARAISO     CLOUDY    61  37  41 W10       30.21R

$$

LMZ046-743>745-180000-
SOUTHERN LAKE MICHIGAN

STATION/POSITION TIME  TEMP WIND        PRES
                       AIR  DIR/SP/G
                 (UTC) (F)  (DEG/KT/KT) (MB)
MICHIGAN CITY    2300   50   20/  2/  3   N/A

$$

INZ004-005-014>016-021>024-180000-
NORTH CENTRAL INDIANA

CITY           SKY/WX    TMP DP  RH WIND       PRES   REMARKS
GOSHEN         PTSUNNY   63  36  36 SW14      30.21S
LOGANSPORT +   MOSUNNY   63  34  34 SW13G20   30.23S
PERU/GRISSOM   MOSUNNY   64  36  35 SW13      30.22S
ROCHESTER +    PTSUNNY   64  34  32 SW10      30.22S
SOUTH BEND     CLOUDY    64  35  34 SW14      30.22R
WARSAW +       PTSUNNY   63  36  36 SW8       30.22S

$$

INZ006>009-017-018-025>027-180000-
NORTHEAST INDIANA

CITY           SKY/WX    TMP DP  RH WIND       PRES   REMARKS
ANGOLA *+      SUNNY     63  36  36 W10       30.21S
AUBURN +       MOSUNNY   63  32  31 SW3       30.23F
FORT WAYNE     PTSUNNY   64  29  26 SW14      30.24S

$$

INZ028-029-035-036-043>045-051>053-180000-
WEST CENTRAL INDIANA

CITY           SKY/WX    TMP DP  RH WIND       PRES   REMARKS
GREENCASTLE +  PTSUNNY   63  36  36 S3        30.25R
LAFAYETTE      MOSUNNY   63  35  35 SW7       30.22R
TERRE HAUTE    PTSUNNY   64  35  34 S12       30.24S

$$

INZ030>032-037>040-046>048-054>057-064-065-180000-
CENTRAL INDIANA

CITY           SKY/WX    TMP DP  RH WIND       PRES   REMARKS
CP ATTERBURY + MOSUNNY   66  32  28 SW9       30.24S
COLUMBUS       SUNNY     64  36  34 S7        30.25S
INDIANAPOLIS   CLOUDY    61  34  36 W10       30.24R
-EAGLE CREEK   PTSUNNY   63  30  28 SW8       30.24R
KOKOMO *+      MOSUNNY   64  34  32 SW13      30.23S
MARION +       MOSUNNY   63  31  30 SW8       30.24S
MT COMFORT *+  MOSUNNY   64  34  32 SW7       30.24S
SHELBYVILLE    MOSUNNY   66  36  32 S12       30.24R
ZIONSVILLE +   PTSUNNY   63  30  28 SW10      30.25R

$$

INZ033-034-041-042-049-050-058-059-180000-
EAST CENTRAL INDIANA

CITY           SKY/WX    TMP DP  RH WIND       PRES   REMARKS
MUNCIE         MOSUNNY   65  31  28 S9        30.23F

$$

INZ060-061-067>069-081>083-085>088-180000-
SOUTHWEST INDIANA

CITY           SKY/WX    TMP DP  RH WIND       PRES   REMARKS
EVANSVILLE     SUNNY     67  37  33 SE8       30.26R
HUNTINGBURG *+ SUNNY     64  37  36 SW7       30.27R
WASHINGTON +   MOSUNNY   65  42  43 S9        30.25R

$$

INZ062-063-066-070>080-084-089>092-180000-
SOUTH CENTRAL AND SOUTHEAST INDIANA

CITY           SKY/WX    TMP DP  RH WIND       PRES   REMARKS
BLOOMINGTON    MOSUNNY   64  33  31 SW7       30.24S
SEYMOUR +      SUNNY     63  16  16 S7        30.25

$$




USA.gov is the U.S. government's official web portal to all federal, state and local government web resources and services.